Pagina principale
METAR-TAF:

METAR-TAF

Aeroporti :

Pian Rosa, Italia

latitudine: 45-56N, longitudine: 007-42E, altezza: 3480 m

Osservazione

Il bollettino è stato emesso 45 minuti fa, alle 13:55 UTC
Vento 15 kt da nord-ovest con raffiche fino a 27 kt
Temperature -5°C
Umidità 25%
Pressione 1006 hPa

METAR: LIMH 271355Z AUTO 31015G27KT //// M05/M22 Q1006

Ora: 16:40 (14:40 UTC)


TAF: mancante

Osservazioni e previsioni meteorologiche di più di 4000 aeroporti (messaggi METAR e TAF).

Le stazioni disponibili sono rappresentate dai dischi gialli e rossi sulla carta.

Puntare il mouse per vedere il nome della stazione.

Clicca sopra per visualizzare le osservazioni e previsioni meteorologiche.

Per cambiare la mappa : fare clic sui pulsanti verdi con una croce nera per ingrandire, il pulsante verde con un trattino per diminuire, o sulla freccia verde per le mappe adiacenti.


METAR-TAF: